カタログに戻る

STARLINK-30873

運用中通信VLEO
NORAD 58249·PAYLOAD·🇺🇸 United States

打ち上げ Nov 8, 2023 から Cape Canaveral Space Force Station

Loading…

次のパス (今後24時間)

TLE

最新Source: CelesTrak SupGP

元期: Sep 14, 2026, 22:25 UTC

1 58249C 23171V   26257.93451389  .00011695  00000+0  42355-3 0  2576
2 58249  43.0025 296.4527 0001962 272.0360 222.5588 15.27575481    15

AllMySatでSTARLINK-30873をリアルタイム追跡

Download on the App Store